User: anonymous   Login
Location: Unspecified
(0.0000°N, 0.0000°E)
Time: 17:05:06
(UTC+00:00)
Language:

Oscar 18 - Orbit

View from above orbital plane
View from above orbital plane
View from above satellite
View from above satellite

Ground track
Ground track

The orbit data is extracted from the following two-line orbital elements,

1 20441U 90005F   17265.42674309  .00000017  00000-0  22504-4 0  9996
2 20441  98.5967 202.2272 0010532 226.2014 272.0761 14.32740003445419
Epoch (UTC): 22 September 2017 10:14:30
Eccentricity: 0.0010532
inclination: 98.5967°
perigee height: 775 km
apogee height: 790 km
right ascension of ascending node: 202.2272°
argument of perigee: 226.2014°
revolutions per day: 14.32740003
mean anomaly at epoch: 272.0761°
orbit number at epoch: 44541

The dashed part of the orbit path shows where the satellite is in the earth's shadow,  

DLR